User: anonymous   Login
Location: Unspecified
(0.0000°N, 0.0000°E)
Time: 10:08:13
(UTC+00:00)
Language:

STARLINK-31179 - Orbit

View from above orbital plane
View from above orbital plane
View from above satellite
View from above satellite

Ground track
Ground track

The orbit is defined by the following mean orbital elements,

1 58750U          26145.46898110 +.00000000 +00000-0 +53892-4 0 00004
2 58750  43.0037 146.3528 0001794 274.6954  85.3693 15.27579376    07
Epoch (UTC): 25 May 2026 11:15:19
Eccentricity: 0.0001794
inclination: 43.0037°
perigee height: 482 km
apogee height: 484 km
right ascension of ascending node: 146.3528°
argument of perigee: 274.6954°
revolutions per day: 15.27579376
mean anomaly at epoch: 85.3693°

The dashed part of the orbit path shows where the satellite is in the earth's shadow,  

DLR